Simultaneous Nadir Overpasses (SNOs) Predictions

Prediction of SNOs between NOAA-19 and NPP Satellite Orbit:

Table of predicted SNOs for the next 14.0 days since TLE Epoch: 7/20/2013
Index Date (NOAA-19) Time (NOAA-19) Lat,Lon (NOAA-19) SZA (NOAA-19 ) Date (NPP) Time (NPP) Lat,Lon (NPP) SZA (NPP ) Distance(km) Time Diff (sec)
1 07/21/2013 17:28:51 -80.95, 44.69 115.40 07/21/2013 17:29:47 -80.94, 44.85 115.45 2.76 56
2 07/21/2013 18:19:47 80.93,-147.53 64.54 07/21/2013 18:20:31 80.93,-147.46 64.50 1.37 44
3 07/21/2013 19:10:53 -80.92, 20.07 115.52 07/21/2013 19:11:15 -80.91, 20.20 115.55 2.29 22
4 07/21/2013 20:01:50 80.91,-172.51 64.47 07/21/2013 20:02:00 80.91,-172.47 64.46 0.86 10
5 07/21/2013 20:52:56 -80.90, -4.91 115.59 07/21/2013 20:52:44 -80.89, -4.81 115.59 1.81 12
6 07/21/2013
